When you browse on this site, cookies collect data to enhance your experience and personalize the content and advertising you see.
Visit our Privacy Policy to learn more. By continuing to use the site, you agree to this use of cookies and data.
  • In Latvia
  • List of Countries
  • For 7 days
  • Water Temperature
  • Weather Map
  • Weather Widgets
  • user-avatar
    Login

    Hourly Weather Hudymy

    Today, 28 May, Thursday

    Time Temperature Precipitation Wind Pressure Humidity
    00:00 +10°C° 0 mm 3 mps 756 mmHg 94%
    01:00 +10°C° 0 mm 3 mps 756 mmHg 95%
    02:00 +9°C° 0 mm 3 mps 755 mmHg 96%
    03:00 +10°C° 0 mm 3 mps 755 mmHg 95%
    04:00 +10°C° 0 mm 3 mps 755 mmHg 95%
    05:00 +11°C° 0 mm 4 mps 754 mmHg 95%
    06:00 +11°C° 0.2 mm 4 mps 754 mmHg 92%
    07:00 +12°C° 0.2 mm 5 mps 753 mmHg 89%
    08:00 +13°C° 0.2 mm 6 mps 753 mmHg 86%
    09:00 +12°C° 4 mm 7 mps 753 mmHg 89%
    10:00 +11°C° 4 mm 7 mps 752 mmHg 92%
    11:00 +11°C° 4 mm 8 mps 752 mmHg 95%
    12:00 +11°C° 2.5 mm 8 mps 751 mmHg 95%
    13:00 +11°C° 2.5 mm 8 mps 751 mmHg 95%
    14:00 +11°C° 2.5 mm 9 mps 750 mmHg 95%
    15:00 +12°C° 1.3 mm 9 mps 749 mmHg 95%
    16:00 +13°C° 1.3 mm 8 mps 749 mmHg 95%
    17:00 +15°C° 1.3 mm 8 mps 748 mmHg 95%
    18:00 +15°C° 1 mm 7 mps 747 mmHg 95%
    19:00 +16°C° 1 mm 6 mps 747 mmHg 95%
    20:00 +16°C° 1 mm 5 mps 746 mmHg 95%
    21:00 +15°C° 0.3 mm 5 mps 746 mmHg 95%
    22:00 +14°C° 0.3 mm 4 mps 746 mmHg 95%
    23:00 +14°C° 0.3 mm 3 mps 746 mmHg 95%

    Tomorrow, 29 May, Friday

    Time Temperature Precipitation Wind Pressure Humidity
    00:00 +13°C° 0 mm 3 mps 746 mmHg 96%
    01:00 +13°C° 0 mm 3 mps 746 mmHg 96%
    02:00 +13°C° 0 mm 3 mps 746 mmHg 96%
    03:00 +12°C° 0 mm 4 mps 746 mmHg 96%
    04:00 +11°C° 0 mm 4 mps 746 mmHg 96%
    05:00 +11°C° 0 mm 4 mps 746 mmHg 96%
    06:00 +12°C° 0 mm 4 mps 746 mmHg 93%
    07:00 +12°C° 0 mm 5 mps 746 mmHg 90%
    08:00 +13°C° 0 mm 5 mps 746 mmHg 87%
    09:00 +14°C° 0 mm 5 mps 747 mmHg 84%
    10:00 +15°C° 0 mm 5 mps 747 mmHg 82%
    11:00 +17°C° 0 mm 4 mps 747 mmHg 80%
    12:00 +17°C° 0 mm 4 mps 747 mmHg 79%
    13:00 +18°C° 0 mm 4 mps 747 mmHg 78%
    14:00 +19°C° 0 mm 4 mps 747 mmHg 77%
    15:00 +19°C° 0 mm 3 mps 746 mmHg 78%
    16:00 +19°C° 0 mm 3 mps 746 mmHg 78%
    17:00 +19°C° 0 mm 3 mps 746 mmHg 78%
    18:00 +18°C° 0 mm 2 mps 746 mmHg 82%
    19:00 +16°C° 0 mm 1 mps 746 mmHg 86%
    20:00 +15°C° 0 mm 1 mps 746 mmHg 89%
    21:00 +15°C° 0 mm 1 mps 746 mmHg 89%
    22:00 +15°C° 0 mm 1 mps 745 mmHg 88%
    23:00 +15°C° 0 mm 1 mps 745 mmHg 88%

    Day after tomorrow, 30 May, Saturday

    Time Temperature Precipitation Wind Pressure Humidity
    00:00 +15°C° 0 mm 1 mps 745 mmHg 88%
    01:00 +15°C° 0 mm 1 mps 745 mmHg 89%
    02:00 +15°C° 0 mm 1 mps 744 mmHg 89%
    03:00 +14°C° 0.3 mm 1 mps 744 mmHg 91%
    04:00 +14°C° 0.3 mm 2 mps 744 mmHg 92%
    05:00 +14°C° 0.3 mm 2 mps 744 mmHg 94%
    06:00 +14°C° 5 mm 2 mps 743 mmHg 95%
    07:00 +14°C° 5 mm 3 mps 743 mmHg 96%
    08:00 +14°C° 5 mm 3 mps 743 mmHg 98%
    09:00 +14°C° 3 mm 3 mps 743 mmHg 98%
    10:00 +14°C° 3 mm 3 mps 743 mmHg 97%
    11:00 +14°C° 3 mm 3 mps 742 mmHg 97%
    12:00 +14°C° 3 mm 4 mps 742 mmHg 97%
    13:00 +13°C° 3 mm 5 mps 742 mmHg 97%
    14:00 +13°C° 3 mm 6 mps 742 mmHg 96%
    15:00 +13°C° 1.6 mm 5 mps 742 mmHg 96%
    16:00 +13°C° 1.6 mm 5 mps 742 mmHg 95%
    17:00 +13°C° 1.6 mm 4 mps 742 mmHg 94%
    18:00 +13°C° 0 mm 4 mps 743 mmHg 95%
    19:00 +12°C° 0 mm 3 mps 743 mmHg 95%
    20:00 +13°C° 0 mm 2 mps 743 mmHg 96%
    21:00 +13°C° 0 mm 2 mps 744 mmHg 96%
    22:00 +12°C° 0 mm 2 mps 744 mmHg 96%
    23:00 +11°C° 0 mm 3 mps 745 mmHg 96%

    31 May, Sunday

    Time Temperature Precipitation Wind Pressure Humidity
    00:00 +10°C° 0 mm 3 mps 745 mmHg 96%
    01:00 +10°C° 0 mm 3 mps 745 mmHg 97%
    02:00 +10°C° 0 mm 3 mps 745 mmHg 97%
    03:00 +10°C° 0 mm 3 mps 745 mmHg 97%
    04:00 +10°C° 0 mm 3 mps 745 mmHg 98%
    05:00 +11°C° 0 mm 3 mps 746 mmHg 98%
    06:00 +13°C° 0 mm 2 mps 746 mmHg 96%
    07:00 +13°C° 0 mm 2 mps 746 mmHg 93%
    08:00 +14°C° 0 mm 2 mps 746 mmHg 91%
    09:00 +15°C° 0.3 mm 2 mps 746 mmHg 90%
    10:00 +15°C° 0.3 mm 2 mps 747 mmHg 89%
    11:00 +14°C° 0.3 mm 3 mps 747 mmHg 88%
    12:00 +16°C° 0.3 mm 3 mps 747 mmHg 85%
    13:00 +17°C° 0.3 mm 3 mps 747 mmHg 83%
    14:00 +18°C° 0.3 mm 3 mps 747 mmHg 80%
    15:00 +17°C° 0.6 mm 3 mps 747 mmHg 82%
    16:00 +17°C° 0.6 mm 3 mps 747 mmHg 83%
    17:00 +17°C° 0.6 mm 3 mps 747 mmHg 84%
    18:00 +16°C° 0.3 mm 2 mps 747 mmHg 87%
    19:00 +15°C° 0.3 mm 2 mps 747 mmHg 90%
    20:00 +13°C° 0.3 mm 2 mps 748 mmHg 93%
    21:00 +13°C° 0 mm 1 mps 748 mmHg 93%
    22:00 +12°C° 0 mm 1 mps 748 mmHg 94%
    23:00 +12°C° 0 mm 1 mps 748 mmHg 94%

    1 June, Monday

    Time Temperature Precipitation Wind Pressure Humidity
    00:00 +12°C° 0 mm 1 mps 748 mmHg 95%
    01:00 +11°C° 0 mm 1 mps 748 mmHg 95%
    02:00 +11°C° 0 mm 1 mps 748 mmHg 96%
    03:00 +11°C° 0 mm 1 mps 748 mmHg 96%
    04:00 +12°C° 0 mm 1 mps 749 mmHg 97%
    05:00 +12°C° 0 mm 1 mps 749 mmHg 97%
    06:00 +13°C° 0 mm 2 mps 749 mmHg 95%
    07:00 +14°C° 0 mm 2 mps 749 mmHg 93%
    08:00 +15°C° 0 mm 2 mps 750 mmHg 91%
    09:00 +16°C° 0 mm 2 mps 750 mmHg 88%
    10:00 +17°C° 0 mm 2 mps 750 mmHg 86%
    11:00 +18°C° 0 mm 2 mps 750 mmHg 83%
    12:00 +18°C° 0.6 mm 3 mps 750 mmHg 82%
    13:00 +19°C° 0.6 mm 4 mps 750 mmHg 81%
    14:00 +20°C° 0.6 mm 5 mps 750 mmHg 79%
    15:00 +19°C° 0.6 mm 5 mps 750 mmHg 81%
    16:00 +17°C° 0.6 mm 5 mps 750 mmHg 83%
    17:00 +17°C° 0.6 mm 6 mps 750 mmHg 85%
    18:00 +16°C° 0 mm 5 mps 750 mmHg 87%
    19:00 +14°C° 0 mm 5 mps 750 mmHg 89%
    20:00 +13°C° 0 mm 4 mps 750 mmHg 91%
    21:00 +12°C° 0 mm 4 mps 750 mmHg 91%
    22:00 +12°C° 0 mm 4 mps 751 mmHg 92%
    23:00 +11°C° 0 mm 4 mps 751 mmHg 92%

    2 June, Tuesday

    Time Temperature Precipitation Wind Pressure Humidity
    00:00 +10°C° 0 mm 4 mps 751 mmHg 93%
    01:00 +10°C° 0 mm 4 mps 751 mmHg 94%
    02:00 +10°C° 0 mm 4 mps 751 mmHg 95%
    03:00 +10°C° 0 mm 4 mps 751 mmHg 95%
    04:00 +10°C° 0 mm 4 mps 751 mmHg 94%
    05:00 +10°C° 0 mm 4 mps 751 mmHg 94%
    06:00 +11°C° 0 mm 4 mps 751 mmHg 90%
    07:00 +12°C° 0 mm 5 mps 751 mmHg 85%
    08:00 +14°C° 0 mm 5 mps 751 mmHg 81%
    09:00 +15°C° 0.1 mm 5 mps 751 mmHg 77%
    10:00 +15°C° 0.1 mm 5 mps 751 mmHg 74%
    11:00 +16°C° 0.1 mm 5 mps 751 mmHg 70%
    12:00 +16°C° 0.1 mm 5 mps 751 mmHg 69%
    13:00 +16°C° 0.1 mm 5 mps 751 mmHg 68%
    14:00 +17°C° 0.1 mm 5 mps 751 mmHg 67%
    15:00 +16°C° 0.1 mm 5 mps 751 mmHg 69%
    16:00 +16°C° 0.1 mm 5 mps 751 mmHg 71%
    17:00 +16°C° 0.1 mm 5 mps 751 mmHg 74%
    18:00 +14°C° 0 mm 4 mps 751 mmHg 79%
    19:00 +12°C° 0 mm 4 mps 752 mmHg 84%
    20:00 +11°C° 0 mm 3 mps 752 mmHg 89%
    21:00 +10°C° 0 mm 3 mps 752 mmHg 90%
    22:00 +9°C° 0 mm 3 mps 752 mmHg 91%
    23:00 +9°C° 0 mm 3 mps 752 mmHg 92%
    Show more